COSMOS 397 DEB, 5016

Orbit data source: Space-Track

COSMOS 397 DEB, 5016 is space debris in LEO originally from a launch on Thu, 25 Feb 1971 UTC launched from the Tyuratam Missile And Space Complex (TTMTR). Debris objects in space refer to the collection of defunct objects orbiting the Earth. Examples of debris include non-operational satellites, rocket bodies, and fragments generated from explosions, collisions, or faulty payload assembly.

Loading next visibility...
Identifier
5016, 1971-015K
Orbit
LEO
Country
Flag of CISCIS
Related business
Manufacturer
Unknown
Mission
Spacecraft
Bus & Motor
Unknown
Mass
Unknown
Launch date (UTC)
1971-02-25 (55 years ago)
Launch vehicle
Unknown
Launch site
Tyuratam Missile And Space Complex (TTMTR)
Object type
Payload
Rocket body
Debris
Shape & HBR
Unknown shape, 0.1 m
Radar Cross Section
Small (<0.1 m²)

Expand to show TLE details & history
Last TLE update: 8 hours ago

TLE from 8 hours ago
0 COSMOS 397 DEB
1 05016U 71015K   25349.85603354  .00004707  00000-0  13572-2 0  9991
2 05016  65.8123 163.1149 0653216 171.2327 190.0835 13.63960293628183
Epoch: 2025-12-15T20:32Z
TLE epoch observation values (Epoch: 2025-12-15T20:32:41.297Z)
Latitude
-0.00011°
Longitude
130.19418°
Altitude
1,500.134 km
Speed
6.882 km/s
True Right ascension
10h 52m 27s
True Declination
0° 00' 00"
Sunlit
Object was in daylight at epoch
Visualization orbit readout
Latitude
Unknown
Longitude
Unknown
Altitude
Unknown
Speed
Unknown
Apparent Right ascension
Unknown
Apparent Declination
Unknown
Sunlit
N/A
Visualization observer readout
Local Sidereal Time
03:08:08
Azimuth
Unknown
Elevation
Unknown
Doppler factor
Unknown
Orbital elements
Apogee altitude
1,503.101 km
Perigee altitude
536.604 km
Semi-major axis
7,397.989 km
Eccentricity
0.06532
Inclination
65.8123°
RAAN
163.1149°
Arg. of periapsis
171.2327°
True anomaly
188.87081°
Mean anomaly
190.0835°
Eccentric anomaly
189.46786°
Mean motion
3.41093 °/min
Orbital period
105.54 mins
BSTAR
0.0013572
Loading maneuver chart data...
Computing Atmospheric mass density...

Documentation

Showing up to 5 results
|